Tracking 19644 objects as of 23-Apr-2019
HD Live streaming from Space Station
objects crossing your sky now

INTERCOSMOS 25

Track INTERCOSMOS 25 now!
10-day predictions
INTERCOSMOS 25 is classified as:


NORAD ID: 21819
Int'l Code: 1991-086A
Perigee: 445.5 km
Apogee: 2,886.4 km
Inclination: 82.6 °
Period: 119.5 minutes
Semi major axis: 8036 km
RCS: 7.3989 m2 (large)
Launch date: December 18, 1991
Source: Commonwealth of Independent States (former USSR) (CIS)
Launch site: PLESETSK MISSILE AND SPACE COMPLEX (PKMTR)
aabbcc
Your satellite tracking list
Your tracking list is empty




NASA's NSSDC Master Catalog

Two Line Element Set (TLE):
1 21819U 91086A   19113.16272306  .00000167  00000-0  25569-4 0  9992
2 21819  82.5886  18.4697 1518517  89.7237 287.7073 12.04942369193567
Source of the keplerian elements: AFSPC